Other Surface Observations
Issued by NWS Tucson, AZ

Home | Current Version | Previous Version | Text Only | Print | Product List | Glossary On
Versions: 1 2 3 4 5 6 7 8 9 10 11 12 13 14 15 16 17 18 19 20 21 22 23 24 25 26 27 28 29 30 31 32 33 34 35 36 37 38 39 40 41 42 43 44 45 46 47 48 49 50
423
SXUS55 KTWC 091915
OSOTWC

WEATHER ROUNDUP FOR SOUTHEAST ARIZONA
NATIONAL WEATHER SERVICE TUCSON AZ
1215 PM MST FRI DEC 09 2016

AZZ504>506-514-092015-
LOCATION       SKY/WX    TMP DP  RH WIND       PRES   REMARKS
TUCSON         SUNNY     66  35  31 N6        30.24F
DAVIS-MONTHAN  SUNNY     64  34  32 VRB2      30.22F
CHILDRENS PARK N/A      N/A N/A  44 SE2               PIMA CO DEQ
ALVERNON/22ND  N/A       59 N/A N/A NE1               PIMA CO DEQ
CHERRY/GLENN   N/A       59 N/A N/A NE1               PIMA CO DEQ
TANGERINE      N/A       60 N/A N/A S4                PIMA CO DEQ
CONTL RANCH    N/A       58  36  43 SE6               PIMA CO DEQ
GRANT/1ST      N/A       57  35  44 S2                PIMA CO DEQ
CRAYCROFT/22ND N/A       61  35  38 N/A               PIMA CO DEQ
GOLFLINKS/KOLB N/A       59  35  40 NE2               PIMA CO DEQ
AJO/12TH       N/A       57  35  44 S3                PIMA CO DEQ
FAIRGROUNDS    N/A       61 N/A N/A E13               PIMA CO DEQ
SAGUARO        N/A       65  37  35 W3                *SABINO CYN
SAN CARLOS     N/A       55  32  42 SE10G14           *SAN CARLOS
GREEN VALLEY   N/A       58  33  39 SE4               PIMA CO DEQ
HORSE CAMP CYN N/A       53  34  48 E14G20            *ARAVAIPA CYN
RINCON MTNS    N/A       55  28  35 SW2               *NR MANNING CAMP
$$

AZZ509>511-092015-
LOCATION       SKY/WX    TMP DP  RH WIND       PRES   REMARKS
SAFFORD        SUNNY     53  31  42 S9        30.32F
STRAY HORSE    N/A       49  31  49 N/A               *
TRAIL CABIN    N/A       48  31  52 E7G10             *N OF GRANVILLE
BLACK HILLS    NOT AVBL
DRY LAKE       N/A       54  29  38 SW3               *NATANES MTNS
NOON CREEK     N/A       52  33  48 NE4               *PINALENO MTNS
COLUMBINE      N/A       53  20  27 SW4               *PINALENO MTNS
GUTHRIE        N/A       41  30  65 E8G12             *SW OF GUTHRIE
$$

AZZ502-503-513-092015-
LOCATION       SKY/WX    TMP DP  RH WIND       PRES   REMARKS
NOGALES        SUNNY     67  31  26 VRB3      30.23F
SELLS          N/A       69  41  36 E2                *
SASABE         N/A       66  37  34 NE4               *ALTAR VLY
HOPKINS        N/A       64  31  29 W2                *SANTA RITA MTNS
CARR CYN       N/A       62  35  37 E3                *W OF HEREFORD
$$

AZZ507-508-512-092015-
LOCATION       SKY/WX    TMP DP  RH WIND       PRES   REMARKS
SIERRA VISTA   SUNNY     62  32  32 E7        30.29F
DOUGLAS        SUNNY     56  34  43 S5        30.28F
EMPIRE MTNS    NOT AVBL
MULESHOE RANCH N/A       61  31  32 SE6               *PRESERVE
HEADQUARTERS   N/A       62  33  34 SW3               *CHIRICAHUA MTNS
$$

.............................NOTES.............................
THIS IS AN AUTOMATED COLLECTIVE WITH MINIMAL QUALITY CONTROL.
PIMA CO DEQ SITES HAVE NONSTANDARD WIND SENSOR HEIGHTS.
PIMA CO DEQ SITES DO NOT REPORT WIND GUSTS.
* INDICATES WIND SENSORS LOCATED AT 20 FEET INSTEAD OF 33 FEET.
..............................KEY..............................
SKY/WX - SKY CONDITION/WEATHER
TMP    - TEMPERATURE IN FAHRENHEIT
DP     - DEWPOINT IN FAHRENHEIT
RH     - RELATIVE HUMIDITY IN PERCENT
WIND   - DIRECTION AND SPEED IN MILES PER HOUR (MPH)
VRB    - VARIABLE WIND DIRECTION
PRES   - MEAN SEA LEVEL PRESSURE IN INCHES OF MERCURY
         F - FALLING PRESSURE   R - RISING PRESSURE
         S - STEADY PRESSURE
VSB    - VISIBILITY IN MILES
HX     - HEAT INDEX IN FAHRENHEIT
WCI    - WIND CHILL INDEX IN FAHRENHEIT
N/A    - NOT AVAILABLE
AFB    - AIR FORCE BASE
         DAVIS-MONTHAN IS DAVIS-MONTHAN AIR FORCE BASE
CYN    - CANYON
MTNS   - MOUNTAINS
NCA    - NATIONAL CONSERVATION AREA
NR     - NEAR
VLY    - VALLEY
CONTL  - CONTINENTAL
PIMA CO DEQ - PIMA COUNTY DEPT OF ENVIRONMENTAL QUALITY



USA.gov is the U.S. government's official web portal to all federal, state and local government web resources and services.